Aérodrome :
LOGIN :

S'inscrire | Disclaimer

   EN    FR    IT 

 










Légende :    VFR   VFR Marginal   IFR   IFR Intensif   IFR Très Intensif
Visi : 
Plafond : 
>= 8 km
>= 3000ft
5 à 8 km
1000 à 3000 ft
1500m à 5 km
500 à 1000 ft
800 à 1500m
200 à 500 ft
< 800m
< 200 ft
Symboles :   Orages  Brouillard  Fortes neiges  Fortes précipitations  Vent > 20 kt
SIGMETs :   Divers  Orages  Givrage  Turbulence  Onde Orograph.  Cendres Volcan.







- Altitude de l'aérodrome : 44 ft
- Code IATA : SOU
- Voir les cartes d'approche


EGHI - Southampton

DERNIER METAR :
  • 240650Z 23006KT 9999 FEW011 11/09 Q1016

METARs EXPIRÉS :
  • 240620Z 23004KT 200V260 9999 FEW011 SCT019 11/09 Q1016
  • 240550Z 22005KT 9999 FEW011 10/09 Q1016
  • 240520Z 23005KT 200V260 9999 FEW020 10/09 Q1016
  • 240450Z 25003KT 9999 FEW020 10/09 Q1016

TAF TAF EGHI
Valide du 24 à 06h jusqu'au 24 à 15h UTC


240525Z 2406/2415 25008KT 9999 SCT025
TEMPO 2408/2415 7000 -RA BKN009
PROB30
TEMPO 2410/2415 2000 RADZ BR BKN002
ATIS : +44 23 8062 7103
Pas de NOTAMs connus pour ce terrain.



MET'MAP, la Météo Aéronautique d'un coup d'oeil ! - Copyright ORBIFLY Décembre 2007 - Disclaimer

ORBIFLY MET'MAP TEAM :

Programmation & Développement : Alexandra Zaïnal
Conception & Développement : Baudouin d'Aumeries
Co-Programmation & Développement : Marc-Olivier Méhu
Soutien technique & logistique : Manuel Goepfert

Contact : metmap@orbifly.com




SOURCES & CREDITS :

   NOAA